NOAA 16 DEB, 41203

Orbit data source: Space-Track

NOAA 16 DEB, 41203 is space debris in SSO originally from a launch on Thu, 21 Sep 2000 UTC launched from the Air Force Western Test Range (AFWTR). Debris objects in space refer to the collection of defunct objects orbiting the Earth. Examples of debris include non-operational satellites, rocket bodies, and fragments generated from explosions, collisions, or faulty payload assembly.

Loading next visibility...
Identifier
41203, 2000-055DG
Orbit
SSO
Country
Flag of USUS
Related business
Manufacturer
Unknown
Mission
Spacecraft
Bus & Motor
Unknown
Mass
Unknown
Launch date (UTC)
2000-09-21 (26 years ago)
Launch vehicle
Unknown
Launch site
Air Force Western Test Range (AFWTR)
Object type
Payload
Rocket body
Debris
Shape & HBR
Unknown shape, 0.1 m
Radar Cross Section
Medium (>0.1 m² and <1 m²)

Expand to show TLE details & history
Last TLE update: 21 hours ago

TLE from 21 hours ago
0 NOAA 16 DEB
1 41203U 00055DG  26247.07518106  .00001361  00000-0  65162-3 0  9993
2 41203  98.6848 288.8754 0030357 256.8212 102.9577 14.20455184553009
Epoch: 2026-09-04T01:48Z
TLE epoch observation values (Epoch: 2026-09-04T01:48:15.643Z)
Latitude
-0.00005°
Longitude
-81.39399°
Altitude
831.696 km
Speed
7.435 km/s
True Right ascension
19h 15m 30s
True Declination
0° 00' 00"
Sunlit
Object was in full shadow at epoch
Visualization orbit readout
Latitude
Unknown
Longitude
Unknown
Altitude
Unknown
Speed
Unknown
Apparent Right ascension
Unknown
Apparent Declination
Unknown
Sunlit
N/A
Visualization observer readout
Local Sidereal Time
14:37:51
Azimuth
Unknown
Elevation
Unknown
Doppler factor
Unknown
Orbital elements
Apogee altitude
842.825 km
Perigee altitude
799.116 km
Semi-major axis
7,199.108 km
Eccentricity
0.00304
Inclination
98.6848°
RAAN
288.8754°
Arg. of periapsis
256.8212°
True anomaly
103.29642°
Mean anomaly
102.9577°
Eccentric anomaly
103.12709°
Mean motion
3.55325 °/min
Orbital period
101.32 mins
BSTAR
0.00065162
Loading maneuver chart data...
Computing Atmospheric mass density...
Loading historical data...
Loading historical data...
Loading historical data...
Loading historical data...
Loading historical data...
Loading historical data...
Loading historical data...

Documentation

Showing up to 5 results
|